Flag for Germany Weather past 2 weeks in Unna, North Rhine-Westphalia, Germany

Now
79 °F

Clear.


Feels Like: 79 °F
Forecast: 71 / 94 °F
Wind: 5 mph from Southeast

Location: Dortmund / Wickede

Current Time: Jul 2, 2015 at 1:46:07 AM

Latest Report: Jul 1, 2015 at 10:50 PM


Visibility: 10 mi

Pressure: 30.07 "Hg

Humidity: 42%

Dew point: 54 °F

Location of UnnaLocation

Historic Weather in Unna — Graph

°F

Unna temperature yesterday

Maximum temperature yesterday: 91 °F (at 4:50 PM)
Minimum temperature yesterday: 57 °F (at 5:50 AM)
Average temperature yesterday: 81 °F

Past Weeks' High & Low Weather Summary

 TemperatureHumidityPressure
High91 °F (Jul 1, 4:50 PM)94% (Jun 20, 6:20 AM)30.27 "Hg (Jun 20, 6:20 AM)
Low43 °F (Jun 17, 5:20 AM)24% (Jul 1, 4:20 PM)29.68 "Hg (Jun 22, 7:50 PM)
Average63 °F63%30.06 "Hg
* Reported Jun 16 10:20 PM — Jul 1 10:50 PM, Unna, Weather by CustomWeather, © 2015

Note: Actual official high and low records may vary slightly from our data, if they occured in-between our weather recording intervals... More about our weather records

Advertising

Unna weather history for previous 24 hours

 ConditionsComfort  
Time TempWeatherWind HumidityBarometerVisibility
10:50 PM
Wed, Jul 1
79 °FClear.5 mph42%30.07 "Hg10 mi
10:20 PM81 °FSunny.5 mph42%30.04 "Hg10 mi
9:50 PM82 °FSunny.6 mph37%30.04 "Hg10 mi
9:20 PM84 °FSunny.6 mph35%30.04 "Hg10 mi
8:50 PM86 °FSunny.6 mph35%30.04 "Hg10 mi
8:20 PM86 °FSunny.6 mph35%30.04 "Hg10 mi
7:50 PM88 °FSunny.8 mph31%30.04 "Hg10 mi
7:20 PM90 °FPassing clouds.8 mph27%30.01 "HgN/A
6:50 PM90 °FPassing clouds.7 mph26%30.04 "HgN/A
6:20 PM90 °FPassing clouds.6 mph24%30.04 "HgN/A
5:50 PM90 °FSunny.9 mph24%30.04 "Hg10 mi
5:20 PM91 °FPassing clouds.8 mph24%30.04 "HgN/A
4:50 PM91 °FPassing clouds.8 mph24%30.04 "HgN/A
4:20 PM90 °FPassing clouds.7 mph24%30.04 "HgN/A
3:50 PM90 °FPassing clouds.8 mph26%30.04 "HgN/A
3:20 PM90 °FPassing clouds.10 mph26%30.07 "HgN/A
2:50 PM88 °FSunny.9 mph29%30.07 "Hg10 mi
2:20 PM86 °FSunny.10 mph33%30.07 "Hg10 mi
1:50 PM86 °FPassing clouds.12 mph35%30.07 "HgN/A
1:20 PM86 °FPassing clouds.8 mph35%30.09 "HgN/A
12:50 PM84 °FPassing clouds.8 mph40%30.09 "HgN/A
12:20 PM84 °FPassing clouds.7 mph40%30.09 "HgN/A
11:50 AM84 °FSunny.8 mph31%30.09 "Hg10 mi
11:20 AM82 °FPassing clouds.8 mph30%30.09 "HgN/A
10:50 AM82 °FPassing clouds.7 mph32%30.09 "HgN/A
10:20 AM81 °FSunny.6 mph37%30.09 "Hg10 mi
9:50 AM79 °FSunny.6 mph51%30.09 "Hg10 mi
9:20 AM73 °FPassing clouds.5 mph57%30.12 "HgN/A
8:50 AM72 °FPassing clouds.5 mph57%30.12 "HgN/A
8:20 AM68 °FSunny.3 mph60%30.09 "Hg10 mi
7:50 AM68 °FSunny.1 mph64%30.09 "Hg10 mi
7:20 AM66 °FSunny.2 mph68%30.09 "Hg10 mi
6:50 AM63 °FSunny.2 mph68%30.09 "Hg10 mi
6:20 AM59 °FSunny.1 mph72%30.09 "Hg10 mi
5:50 AM57 °FClear.2 mph72%30.09 "Hg10 mi
5:20 AM59 °FClear.3 mph72%30.09 "Hg10 mi
Weather by CustomWeather, © 2015

See weather overviewHow to use our weather pages